This is the latest recevied weather packets stored in our database for station/object WB9TLH-11. If no packets are shown the sender has not sent any weather packets the latest 1 day(s).
| Time | Temp. | Humidity | Pressure | Rain* | Wind** | Luminosity | Snow |
|---|---|---|---|---|---|---|---|
| 1778041850 | 8.33° C | 91% | 1009 hPa | 2.54 mm | - | - | - |
| 1778041550 | 8.33° C | 91% | 1009 hPa | 3.05 mm | - | - | - |
| 1778040650 | 8.33° C | 91% | 1009.1 hPa | 3.81 mm | - | - | - |
| 1778040350 | 8.33° C | 90% | 1008.7 hPa | 3.81 mm | - | - | - |
| 1778040050 | 8.33° C | 90% | 1008.5 hPa | 3.56 mm | - | - | - |
| 1778039750 | 8.33° C | 90% | 1008.5 hPa | 4.06 mm | - | - | - |
| 1778039450 | 8.33° C | 90% | 1008.2 hPa | 4.57 mm | - | - | - |
| 1778039150 | 8.33° C | 90% | 1008.2 hPa | 4.57 mm | - | - | - |
| 1778038550 | 8.33° C | 90% | 1009.1 hPa | 4.83 mm | - | - | - |
| 1778037350 | 8.33° C | 90% | 1009.5 hPa | 5.08 mm | - | - | - |
| 1778036450 | 8.33° C | 90% | 1008.4 hPa | 7.11 mm | - | - | - |
| 1778036150 | 8.33° C | 90% | 1008.6 hPa | 7.62 mm | - | - | - |
| 1778035550 | 8.33° C | 90% | 1009.2 hPa | 8.64 mm | - | - | - |
| 1778034350 | 8.33° C | 90% | 1007.9 hPa | 6.86 mm | - | - | - |
| 1778032550 | 8.33° C | 90% | 1008.3 hPa | 3.05 mm | - | - | - |
| 1778029851 | 8.33° C | 90% | 1007.5 hPa | 4.32 mm | - | - | - |
| 1778029551 | 8.33° C | 90% | 1007.4 hPa | 4.57 mm | - | - | - |
| 1778029251 | 8.33° C | 90% | 1007.7 hPa | 4.57 mm | - | - | - |
| 1778028951 | 8.33° C | 90% | 1007.8 hPa | 4.83 mm | - | - | - |
| 1778028651 | 8.33° C | 89% | 1007.6 hPa | 5.08 mm | - | - | - |
| 1778028351 | 8.89° C | 90% | 1007.7 hPa | 4.57 mm | - | - | - |
| 1778028051 | 8.89° C | 90% | 1007.5 hPa | 3.81 mm | - | - | - |
| 1778027751 | 8.89° C | 90% | 1008.1 hPa | 3.3 mm | - | - | - |
| 1778027451 | 8.89° C | 90% | 1007.3 hPa | 3.3 mm | - | - | - |
| 1778027151 | 8.89° C | 90% | 1007.1 hPa | 3.05 mm | - | - | - |
* Rain latest hour (hover to see other rain measurements)
** Current wind speed in m/s (hover to see current wind gust speed)